DECAYED

ELECTRON KICK STAGE R/B, 59967 (Decayed)

Orbit data source: Space-Track

ELECTRON KICK STAGE R/B, 59967 was space debris in LEO originally from a launch on Wed, 05 Jun 2024 UTC launched from the Rocket Lab Launch Complex (RLLC). Debris objects in space refer to the collection of defunct objects orbiting the Earth. Examples of debris include non-operational satellites, rocket bodies, and fragments generated from explosions, collisions, or faulty payload assembly.

Not visible in the next 10 days
Identifier
59967, 2024-108C
Orbit
Decayed
Country
Flag of USUS
Related business
Manufacturer
Rocket Lab
Mission
Decayed spacecraft
Bus & Motor
KICK STAGE, CURIE
Mass
~50 kg wet, ~50 kg dry
Launch date (UTC)
2024-06-05 (2 years ago)
Launch vehicle
Unknown
Launch site
Rocket Lab Launch Complex (RLLC)
Object type
Payload
Rocket body
Debris
Shape & HBR
Trunc Cone, 0.7 m
Radar Cross Section
0.760 m², Medium (>0.1 m² and < 1m²)

Expand to show TLE details & history
Last TLE update: 8 months ago

TLE from 8 months ago
0 ELECTRON KICK STAGE R/B
1 59967U 24108C   25093.85518764  .12035746  25498-5  62710-3 0  9994
2 59967  97.4182 258.9606 0012373 288.7956  71.2002 16.41439182 46759
Epoch: 2025-04-03T20:31Z
TLE epoch observation values (Epoch: 2025-04-03T20:31:28.212Z)
Latitude
0.00005°
Longitude
118.671°
Altitude
162.63 km
Speed
7.81 km/s
True Right ascension
17h 15m 50s
True Declination
0° 00' 00"
Sunlit
Object was in full shadow at epoch
Visualization orbit readout
Latitude
Unknown
Longitude
Unknown
Altitude
Unknown
Speed
Unknown
Apparent Right ascension
Unknown
Apparent Declination
Unknown
Sunlit
N/A
Visualization observer readout
Local Sidereal Time
04:28:46
Azimuth
Unknown
Elevation
Unknown
Doppler factor
Unknown
Orbital elements
Apogee altitude
166.872 km
Perigee altitude
150.695 km
Semi-major axis
6,536.92 km
Eccentricity
0.00124
Inclination
97.4182°
RAAN
258.9606°
Arg. of periapsis
288.7956°
True anomaly
71.33449°
Mean anomaly
71.2002°
Eccentric anomaly
71.26734°
Mean motion
4.10661 °/min
Orbital period
87.66 mins
BSTAR
0.0006271
Loading maneuver chart data...
Computing Atmospheric mass density...
Loading historical data...
Loading historical data...
Loading historical data...
Loading historical data...
Loading historical data...
Loading historical data...
Loading historical data...
Other satellites on launch #108 in the year 2024 (2024-06-05 UTC)

Documentation

Showing up to 5 results
|